GW1213 Weather Reports


time (UTC)temp
C
wind
direction
speed
KPH
gust
KPH
rain 1hr
cm
rain 24hr
cm
rain mn
cm
humidity
%
barometer
mb
20260902165538 32 51 3.2 12.9 0.00 0.00 0.00 64 1017.2
20260902165036 32 69 1.6 8.0 0.00 0.00 0.00 64 1017.3
20260902164606 32 0 0.0 12.9 0.00 0.00 0.00 63 1017.3
20260902164035 32 52 3.2 12.9 0.00 0.00 0.00 64 1017.2
20260902163535 32 54 3.2 12.9 0.00 0.00 0.00 65 1017.2
20260902163053 32 47 0.0 6.4 0.00 0.00 0.00 64 1017.3
20260902162539 32 64 1.6 8.0 0.00 0.00 0.00 62 1017.2
20260902162038 32 147 4.8 8.0 0.00 0.00 0.00 63 1017.3
20260902161603 32 188 1.6 6.4 0.00 0.00 0.00 61 1017.3
20260902161036 32 70 0.0 4.8 0.00 0.00 0.00 64 1017.2
20260902160537 32 0 0.0 4.8 0.00 0.00 0.00 63 1017.2
20260902160057 32 0 0.0 4.8 0.00 0.00 0.00 64 1017.2
20260902155535 32 0 1.6 11.3 0.00 0.00 0.00 64 1017.2
20260902155038 32 72 3.2 11.3 0.00 0.00 0.00 64 1017.1
20260902154558 32 55 0.0 9.7 0.00 0.00 0.00 64 1017.2
20260902154035 31 59 1.6 11.3 0.00 0.00 0.00 65 1017.2
20260902153537 32 105 3.2 12.9 0.00 0.00 0.00 66 1017.2
20260902153107 32 71 3.2 12.9 0.00 0.00 0.00 66 1017.2
20260902152541 31 0 0.0 6.4 0.00 0.00 0.00 65 1017.2
20260902152039 31 76 1.6 6.4 0.00 0.00 0.00 66 1017.3
20260902151602 31 0 0.0 6.4 0.00 0.00 0.00 67 1017.3
20260902151037 31 52 1.6 6.4 0.00 0.00 0.00 68 1017.2
20260902150538 31 9 0.0 8.0 0.00 0.00 0.00 68 1017.3
20260902150101 31 0 1.6 8.0 0.00 0.00 0.00 68 1017.4
20260902145539 31 123 1.6 8.0 0.00 0.00 0.00 69 1017.4
20260902145038 31 72 1.6 6.4 0.00 0.00 0.00 68 1017.4
20260902144602 31 76 1.6 8.0 0.00 0.00 0.00 69 1017.4
20260902144038 30 43 1.6 8.0 0.00 0.00 0.00 70 1017.4
20260902143540 30 343 0.0 3.2 0.00 0.00 0.00 71 1017.4
20260902143103 30 0 0.0 3.2 0.00 0.00 0.00 72 1017.4
20260902142537 30 0 0.0 3.2 0.00 0.00 0.00 72 1017.4
20260902142038 30 33 0.0 3.2 0.00 0.00 0.00 73 1017.3
20260902141558 30 0 0.0 3.2 0.00 0.00 0.00 72 1017.1
20260902141037 30 0 0.0 3.2 0.00 0.00 0.00 72 1017.2
20260902140535 30 52 0.0 3.2 0.00 0.00 0.00 74 1017.1
20260902140057 30 0 0.0 3.2 0.00 0.00 0.00 74 1017.2
20260902135535 30 0 0.0 4.8 0.00 0.00 0.00 75 1017.3
20260902135035 29 0 0.0 4.8 0.00 0.00 0.00 75 1017.2
20260902134610 29 0 0.0 0.0 0.00 0.00 0.00 76 1017.1
20260902134038 29 0 0.0 0.0 0.00 0.00 0.00 76 1017.1
20260902133538 29 0 0.0 0.0 0.00 0.00 0.00 77 1017.1
20260902133104 28 0 0.0 0.0 0.00 0.00 0.00 78 1017.1
20260902132535 28 0 0.0 0.0 0.00 0.00 0.00 77 1017.1
20260902132038 28 0 0.0 4.8 0.00 0.00 0.00 78 1017.0
20260902131559 28 0 0.0 4.8 0.00 0.00 0.00 79 1017.0
20260902131036 28 55 0.0 4.8 0.00 0.00 0.00 80 1016.9
20260902130537 28 0 0.0 0.0 0.00 0.00 0.00 80 1017.0
20260902130107 28 0 0.0 0.0 0.00 0.00 0.00 80 1016.9
20260902125538 27 0 0.0 0.0 0.00 0.00 0.00 80 1016.9
20260902125037 27 0 0.0 0.0 0.00 0.00 0.00 81 1016.9
20260902124554 27 0 0.0 0.0 0.00 0.00 0.00 81 1017.0
20260902124038 27 0 0.0 0.0 0.00 0.00 0.00 81 1016.8
20260902123536 27 0 0.0 0.0 0.00 0.00 0.00 82 1016.8
20260902123109 26 0 0.0 0.0 0.00 0.00 0.00 83 1017.0
20260902122538 26 0 0.0 0.0 0.00 0.00 0.00 84 1017.0
20260902122035 26 0 0.0 0.0 0.00 0.00 0.00 85 1017.0
20260902121558 26 0 0.0 0.0 0.00 0.00 0.00 86 1017.0
20260902121035 26 0 0.0 0.0 0.00 0.00 0.00 87 1017.2
20260902120535 25 0 0.0 0.0 0.00 0.00 0.00 90 1017.1
20260902120057 25 0 0.0 0.0 0.00 0.00 0.00 91 1017.1
20260902115537 25 0 0.0 0.0 0.00 0.00 0.00 91 1017.1
20260902115035 24 0 0.0 0.0 0.00 0.00 0.00 93 1017.0
20260902114600 23 0 0.0 0.0 0.00 0.00 0.00 93 1017.0
20260902114035 23 0 0.0 0.0 0.00 0.00 0.00 94 1017.0
20260902113535 23 0 0.0 0.0 0.00 0.00 0.00 94 1017.0
20260902113101 23 0 0.0 0.0 0.00 0.00 0.00 94 1017.0
20260902112536 23 0 0.0 0.0 0.00 0.00 0.00 93 1017.0
20260902112036 23 0 0.0 0.0 0.00 0.00 0.00 93 1017.0
20260902111602 23 0 0.0 0.0 0.00 0.00 0.00 93 1017.0
20260902111037 23 0 0.0 0.0 0.00 0.00 0.00 93 1017.0
20260902110538 23 0 0.0 0.0 0.00 0.00 0.00 93 1017.0
20260902110105 23 0 0.0 0.0 0.00 0.00 0.00 93 1016.8
20260902105535 23 0 0.0 0.0 0.00 0.00 0.00 93 1016.9
20260902105035 23 0 0.0 0.0 0.00 0.00 0.00 93 1016.9
20260902104610 23 0 0.0 0.0 0.00 0.00 0.00 93 1016.8
20260902104036 23 0 0.0 0.0 0.00 0.00 0.00 92 1016.8
20260902103537 23 0 0.0 0.0 0.00 0.00 0.00 92 1016.8
20260902103119 23 0 0.0 0.0 0.00 0.00 0.00 92 1016.7
20260902102536 23 0 0.0 0.0 0.00 0.00 0.00 90 1016.7
20260902102036 23 0 0.0 0.0 0.00 0.00 0.00 91 1016.6
20260902101606 23 0 0.0 0.0 0.00 0.00 0.00 91 1016.4
20260902101035 23 0 0.0 0.0 0.00 0.00 0.00 91 1016.4
20260902100536 23 0 0.0 0.0 0.00 0.00 0.00 90 1016.4
20260902100056 24 0 0.0 0.0 0.00 0.00 0.00 90 1016.4
20260902095536 24 0 0.0 0.0 0.00 0.00 0.00 91 1016.3
20260902095038 24 0 0.0 0.0 0.00 0.00 0.00 91 1016.3
20260902094601 24 0 0.0 0.0 0.00 0.00 0.00 92 1016.3
20260902094035 24 0 0.0 0.0 0.00 0.00 0.00 92 1016.3
20260902093538 24 0 0.0 0.0 0.00 0.00 0.00 92 1016.2
20260902093100 24 0 0.0 0.0 0.00 0.00 0.00 92 1016.1
20260902092536 24 0 0.0 0.0 0.00 0.00 0.00 93 1016.1
20260902092035 24 0 0.0 0.0 0.00 0.00 0.00 93 1016.1
20260902091556 24 0 0.0 0.0 0.00 0.00 0.00 93 1016.2
20260902091038 24 0 0.0 0.0 0.00 0.00 0.00 93 1016.1
20260902090538 24 0 0.0 0.0 0.00 0.00 0.00 93 1016.2
20260902090058 24 0 0.0 0.0 0.00 0.00 0.00 93 1016.2
20260902085537 24 0 0.0 0.0 0.00 0.00 0.00 93 1016.2
20260902085035 24 0 0.0 0.0 0.00 0.00 0.00 93 1016.2
20260902084559 24 0 0.0 0.0 0.00 0.00 0.00 93 1016.2
20260902084036 24 0 0.0 0.0 0.00 0.00 0.00 93 1016.1
20260902083539 24 0 0.0 0.0 0.00 0.00 0.00 93 1016.0
20260902083057 24 0 0.0 0.0 0.00 0.00 0.00 92 1016.0
20260902082535 24 0 0.0 0.0 0.00 0.00 0.00 92 1016.0
20260902082035 24 0 0.0 0.0 0.00 0.00 0.00 93 1016.0
20260902081603 24 0 0.0 0.0 0.00 0.00 0.00 92 1016.0
20260902081038 24 0 0.0 0.0 0.00 0.00 0.00 92 1016.0
20260902080538 24 0 0.0 0.0 0.00 0.00 0.00 92 1016.1
20260902075538 24 0 0.0 0.0 0.00 0.00 0.00 93 1016.1
20260902075035 24 0 0.0 0.0 0.00 0.00 0.00 93 1016.1
20260902074600 24 0 0.0 0.0 0.00 0.00 0.00 93 1016.0
20260902074035 24 0 0.0 0.0 0.00 0.00 0.00 93 1016.1
20260902073535 24 0 0.0 0.0 0.00 0.00 0.00 93 1016.1
20260902073108 25 0 0.0 0.0 0.00 0.00 0.00 94 1016.1
20260902072538 25 0 0.0 0.0 0.00 0.00 0.00 93 1016.1
20260902072041 25 0 0.0 0.0 0.00 0.00 0.00 93 1016.1
20260902071557 25 0 0.0 0.0 0.00 0.00 0.00 93 1016.1
20260902071038 25 0 0.0 0.0 0.00 0.00 0.00 93 1016.0
20260902070535 25 0 0.0 0.0 0.00 0.00 0.00 93 1015.9
20260902070103 25 0 0.0 0.0 0.00 0.00 0.00 93 1015.9
20260902065539 25 0 0.0 0.0 0.00 0.00 0.00 93 1016.0
20260902065038 25 0 0.0 0.0 0.00 0.00 0.00 93 1016.0
20260902064605 25 0 0.0 0.0 0.00 0.00 0.00 93 1015.9
20260902064041 25 0 0.0 0.0 0.00 0.00 0.00 93 1015.8
20260902063537 25 0 0.0 0.0 0.00 0.00 0.00 93 1015.7
20260902063109 25 0 0.0 0.0 0.00 0.00 0.00 93 1015.8
20260902062538 25 0 0.0 0.0 0.00 0.00 0.00 92 1015.8
20260902062039 25 0 0.0 0.0 0.00 0.00 0.00 93 1015.8
20260902061620 25 0 0.0 0.0 0.00 0.00 0.00 93 1015.7
20260902061044 25 0 0.0 0.0 0.00 0.00 0.00 93 1015.7
20260902060537 25 0 0.0 0.0 0.00 0.00 0.00 93 1015.7
20260902060109 25 0 0.0 0.0 0.00 0.00 0.00 93 1015.6
20260902055537 25 0 0.0 0.0 0.00 0.00 0.00 93 1015.6
20260902055036 25 0 0.0 0.0 0.00 0.00 0.00 93 1015.6
20260902054559 25 0 0.0 0.0 0.00 0.00 0.00 93 1015.5
20260902054037 25 0 0.0 0.0 0.00 0.00 0.00 93 1015.4
20260902053536 25 0 0.0 0.0 0.00 0.00 0.00 93 1015.5
20260902053102 25 0 0.0 0.0 0.00 0.00 0.00 92 1015.4
20260902052534 25 0 0.0 0.0 0.00 0.00 0.00 93 1015.5
20260902052036 25 0 0.0 0.0 0.00 0.00 0.00 92 1015.5
20260902051615 25 0 0.0 0.0 0.00 0.00 0.00 92 1015.6
20260902051036 25 0 0.0 0.0 0.00 0.00 0.00 92 1015.5
20260902050536 25 0 0.0 0.0 0.00 0.00 0.00 92 1015.5
20260902050107 25 0 0.0 0.0 0.00 0.00 0.00 92 1015.6
20260902045535 25 0 0.0 0.0 0.00 0.00 0.00 92 1015.7
20260902045037 25 0 0.0 0.0 0.00 0.00 0.00 92 1015.7
20260902044626 26 0 0.0 0.0 0.00 0.00 0.00 92 1015.6
20260902044035 26 0 0.0 0.0 0.00 0.00 0.00 92 1015.6
20260902043535 26 0 0.0 0.0 0.00 0.00 0.00 92 1015.7
20260902043056 26 0 0.0 0.0 0.00 0.00 0.00 91 1015.7
20260902042535 26 0 0.0 0.0 0.00 0.00 0.00 92 1015.7
20260902042037 26 0 0.0 0.0 0.00 0.00 0.00 92 1015.7
20260902041604 26 0 0.0 0.0 0.00 0.00 0.00 92 1015.7
20260902041034 26 0 0.0 0.0 0.00 0.00 0.00 92 1015.6
20260902040536 26 0 0.0 0.0 0.00 0.00 0.00 91 1015.5
20260902040104 26 0 0.0 0.0 0.00 0.00 0.00 91 1015.5
20260902035535 26 0 0.0 0.0 0.00 0.00 0.00 91 1015.5
20260902035035 26 0 0.0 0.0 0.00 0.00 0.00 91 1015.4
20260902034601 26 0 0.0 0.0 0.00 0.00 0.00 91 1015.3
20260902034035 26 0 0.0 0.0 0.00 0.00 0.00 91 1015.3
20260902033536 26 0 0.0 0.0 0.00 0.00 0.00 90 1015.3
20260902033104 26 0 0.0 0.0 0.00 0.00 0.00 90 1015.2
20260902032535 26 0 0.0 0.0 0.00 0.00 0.00 90 1015.1
20260902032036 26 0 0.0 0.0 0.00 0.00 0.00 90 1015.1
20260902031619 26 0 0.0 0.0 0.00 0.00 0.00 90 1015.1
20260902031036 26 0 0.0 0.0 0.00 0.00 0.00 90 1014.9
20260902030541 26 0 0.0 0.0 0.00 0.00 0.00 89 1015.0
20260902025537 26 0 0.0 0.0 0.00 0.00 0.00 89 1015.1
20260902025036 26 0 0.0 0.0 0.00 0.00 0.00 89 1015.1
20260902024602 26 0 0.0 0.0 0.00 0.00 0.00 89 1015.1
20260902024035 26 0 0.0 0.0 0.00 0.00 0.00 88 1015.2
20260902023536 26 0 0.0 0.0 0.00 0.00 0.00 88 1015.1
20260902023106 26 0 0.0 0.0 0.00 0.00 0.00 88 1015.0
20260902022535 27 0 0.0 0.0 0.00 0.00 0.00 88 1014.9
20260902022034 27 0 0.0 0.0 0.00 0.00 0.00 88 1014.9
20260902021603 27 0 0.0 0.0 0.00 0.00 0.00 87 1014.8
20260902021035 27 0 0.0 0.0 0.00 0.00 0.00 86 1014.8
20260902020539 27 0 0.0 0.0 0.00 0.00 0.00 86 1014.7
20260902020101 27 0 0.0 0.0 0.00 0.00 0.00 87 1014.8
20260902015537 27 0 0.0 0.0 0.00 0.00 0.00 87 1014.8
20260902015036 27 0 0.0 0.0 0.00 0.00 0.00 86 1014.8
20260902014606 27 0 0.0 0.0 0.00 0.00 0.00 86 1014.6
20260902014039 27 0 0.0 0.0 0.00 0.00 0.00 84 1014.5
20260902013535 27 0 0.0 0.0 0.00 0.00 0.00 84 1014.5
20260902013112 27 0 0.0 0.0 0.00 0.00 0.00 84 1014.4
20260902012535 27 0 0.0 0.0 0.00 0.00 0.00 85 1014.4
20260902012038 27 0 0.0 0.0 0.00 0.00 0.00 84 1014.2
20260902011603 27 0 0.0 0.0 0.00 0.00 0.00 83 1014.2
20260902011039 27 0 0.0 0.0 0.00 0.00 0.00 83 1014.1
20260902010537 27 0 0.0 0.0 0.00 0.00 0.00 83 1014.0
20260902010105 28 0 0.0 0.0 0.00 0.00 0.00 83 1013.8
20260902005536 28 0 0.0 0.0 0.00 0.00 0.00 82 1013.7
20260902005036 28 0 0.0 0.0 0.00 0.00 0.00 82 1013.6
20260902004559 28 0 0.0 0.0 0.00 0.00 0.00 81 1013.6
20260902004036 28 0 0.0 0.0 0.00 0.00 0.00 81 1013.5
20260902003535 28 0 0.0 0.0 0.00 0.00 0.00 81 1013.4
20260902003106 28 0 0.0 0.0 0.00 0.00 0.00 79 1013.3
20260902002535 29 0 0.0 0.0 0.00 0.00 0.00 78 1013.2
20260902002039 29 0 0.0 0.0 0.00 0.00 0.00 77 1013.2
20260902001602 30 0 0.0 0.0 0.00 0.00 0.00 76 1013.2
20260902001038 30 0 0.0 0.0 0.00 0.00 0.00 74 1013.2
20260902000538 30 0 0.0 0.0 0.00 0.00 0.00 72 1013.1
20260902000055 30 0 0.0 0.0 0.00 0.00 0.00 72 1013.2
20260901235538 30 0 0.0 0.0 0.00 0.00 0.00 71 1013.3
20260901235037 31 0 0.0 0.0 0.00 0.00 0.00 71 1013.3
20260901234606 31 0 0.0 0.0 0.00 0.00 0.00 70 1013.2
20260901234035 31 0 0.0 0.0 0.00 0.00 0.00 70 1013.2
20260901233535 32 0 0.0 0.0 0.00 0.00 0.00 64 1013.1
20260901233105 32 0 0.0 0.0 0.00 0.00 0.00 63 1013.2
20260901232536 32 0 0.0 0.0 0.00 0.00 0.00 61 1013.2
20260901232036 32 0 0.0 0.0 0.00 0.00 0.00 59 1013.3
20260901231615 32 0 0.0 0.0 0.00 0.00 0.00 58 1013.3
20260901231035 33 0 0.0 1.6 0.00 0.00 0.00 58 1013.2
20260901230538 33 0 0.0 4.8 0.00 0.00 0.00 57 1013.2
20260901230109 33 0 0.0 4.8 0.00 0.00 0.00 56 1013.4
20260901225537 33 0 0.0 6.4 0.00 0.00 0.00 55 1013.4
20260901225037 33 0 1.6 8.0 0.00 0.00 0.00 55 1013.5
20260901224554 33 216 3.2 8.0 0.00 0.00 0.00 55 1013.5
20260901224036 33 0 0.0 4.8 0.00 0.00 0.00 54 1013.6
20260901223539 33 180 0.0 3.2 0.00 0.00 0.00 54 1013.6
20260901223101 33 276 0.0 8.0 0.00 0.00 0.00 54 1013.7
20260901222536 33 0 0.0 8.0 0.00 0.00 0.00 55 1013.7
20260901222039 33 199 1.6 8.0 0.00 0.00 0.00 53 1013.7
20260901221612 34 229 1.6 6.4 0.00 0.00 0.00 52 1013.7
20260901221038 34 0 0.0 4.8 0.00 0.00 0.00 53 1013.8
20260901220535 34 205 0.0 9.7 0.00 0.00 0.00 53 1013.8
20260901220059 34 215 3.2 9.7 0.00 0.00 0.00 54 1013.8
20260901215535 34 247 0.0 6.4 0.00 0.00 0.00 55 1013.8
20260901215038 34 207 1.6 6.4 0.00 0.00 0.00 54 1013.9
20260901214605 34 271 0.0 11.3 0.00 0.00 0.00 55 1013.9
20260901214037 34 215 1.6 11.3 0.00 0.00 0.00 54 1013.8
20260901213541 35 0 1.6 9.7 0.00 0.00 0.00 54 1013.9
20260901213057 35 181 1.6 9.7 0.00 0.00 0.00 56 1013.9
20260901212537 35 0 0.0 11.3 0.00 0.00 0.00 54 1013.9
20260901212037 35 270 3.2 12.9 0.00 0.00 0.00 53 1013.9
20260901211600 35 128 4.8 12.9 0.00 0.00 0.00 53 1013.9
20260901211038 35 223 3.2 12.9 0.00 0.00 0.00 52 1013.9
20260901210538 35 236 3.2 11.3 0.00 0.00 0.00 52 1013.9
20260901210058 36 220 3.2 11.3 0.00 0.00 0.00 53 1013.9
20260901205538 36 178 1.6 6.4 0.00 0.00 0.00 52 1013.9
20260901205038 36 0 1.6 6.4 0.00 0.00 0.00 52 1013.9
20260901204557 36 130 0.0 6.4 0.00 0.00 0.00 53 1014.0
20260901204035 36 200 0.0 6.4 0.00 0.00 0.00 51 1014.1
20260901203539 36 287 0.0 11.3 0.00 0.00 0.00 52 1014.1
20260901203105 36 0 1.6 11.3 0.00 0.00 0.00 53 1014.1
20260901202536 36 223 1.6 9.7 0.00 0.00 0.00 51 1014.2
20260901202038 36 0 0.0 4.8 0.00 0.00 0.00 52 1014.3
20260901201600 36 0 0.0 8.0 0.00 0.00 0.00 53 1014.3
20260901201039 36 298 1.6 8.0 0.00 0.00 0.00 51 1014.3
20260901200537 36 146 0.0 4.8 0.00 0.00 0.00 52 1014.5
20260901200059 36 0 0.0 4.8 0.00 0.00 0.00 51 1014.4
20260901195537 36 222 1.6 4.8 0.00 0.00 0.00 53 1014.4
20260901195036 36 92 0.0 4.8 0.00 0.00 0.00 54 1014.5
20260901194602 36 0 0.0 6.4 0.00 0.00 0.00 52 1014.6
20260901194036 36 280 0.0 6.4 0.00 0.00 0.00 53 1014.8
20260901193536 36 259 1.6 6.4 0.00 0.00 0.00 52 1014.9
20260901193053 36 0 0.0 4.8 0.00 0.00 0.00 54 1015.0
20260901192537 36 0 1.6 4.8 0.00 0.00 0.00 53 1015.1
20260901192038 36 0 0.0 6.4 0.00 0.00 0.00 54 1015.1
20260901191600 35 196 1.6 6.4 0.00 0.00 0.00 54 1015.2
20260901191036 35 238 0.0 4.8 0.00 0.00 0.00 53 1015.3
20260901190537 35 0 0.0 4.8 0.00 0.00 0.00 54 1015.2
20260901190058 35 294 1.6 4.8 0.00 0.00 0.00 56 1015.2
20260901185538 35 267 0.0 8.0 0.00 0.00 0.00 54 1015.2
20260901185037 35 360 0.0 8.0 0.00 0.00 0.00 55 1015.1
20260901184603 35 225 1.6 8.0 0.00 0.00 0.00 52 1015.1
20260901184035 36 0 1.6 9.7 0.00 0.00 0.00 54 1015.0
20260901183537 36 329 1.6 9.7 0.00 0.00 0.00 54 1015.1
20260901183120 35 248 0.0 6.4 0.00 0.00 0.00 52 1015.2
20260901182535 35 0 1.6 6.4 0.00 0.00 0.00 56 1015.2
20260901182035 35 265 1.6 6.4 0.00 0.00 0.00 53 1015.2
20260901181603 35 255 0.0 6.4 0.00 0.00 0.00 57 1015.2
20260901181035 35 0 0.0 6.4 0.00 0.00 0.00 55 1015.3
20260901180536 35 225 1.6 6.4 0.00 0.00 0.00 53 1015.3
20260901180100 35 269 1.6 6.4 0.00 0.00 0.00 53 1015.2
20260901175535 35 259 0.0 3.2 0.00 0.00 0.00 57 1015.2
20260901175037 35 0 0.0 4.8 0.00 0.00 0.00 53 1015.3
20260901174558 35 0 1.6 6.4 0.00 0.00 0.00 54 1015.2
20260901174035 35 204 0.0 6.4 0.00 0.00 0.00 56 1015.3
20260901173539 35 0 1.6 6.4 0.00 0.00 0.00 53 1015.4
20260901173155 35 300 0.0 6.4 0.00 0.00 0.00 56 1015.4
20260901172538 35 0 1.6 6.4 0.00 0.00 0.00 54 1015.4
20260901172035 35 0 0.0 3.2 0.00 0.00 0.00 55 1015.3
20260901171604 35 323 0.0 4.8 0.00 0.00 0.00 55 1015.3
20260901171035 35 214 1.6 4.8 0.00 0.00 0.00 54 1015.2
20260901170536 35 283 1.6 8.0 0.00 0.00 0.00 56 1015.2